Hourly Weather Roundup
Issued by NWS Central Illinois

Home | Current Version | Previous Version | Text Only | Print | Product List | Glossary On
Versions: 1 2 3 4 5 6 7 8 9 10 11 12 13 14 15 16 17 18 19 20 21 22 23 24 25 26 27 28 29 30 31 32 33 34 35 36 37 38 39 40 41 42 43 44 45 46 47 48 49 50
000
NZUS43 KILX 252010
HWRILX

AREA WEATHER ROUNDUP
NATIONAL WEATHER SERVICE, LINCOLN IL
200 PM CST SUN JAN 25 2015


CITY           SKY/WX    TMP DP  RH WIND       PRES   REMARKS
BLOOMINGTON    MIX PCPN  33  33 100 NE22      29.69R FOG     WCI  21
CHAMPAIGN      CLOUDY    36  34  92 NE18      29.63R FOG     WCI  26
DECATUR        CLOUDY    36  34  92 N20       29.63R FOG     WCI  25
FLORA          DRIZZLE   41  41  99 CALM      29.58S
GALESBURG      LGT SNOW  30  28  92 N18G28    29.79R WCI  17
JACKSONVILLE   CLOUDY    38  35  90 N15G24    29.68R WCI  29
LACON          LGT SNOW  31  29  91 N12G17    29.77R VSB 1   WCI  22
LAWRENCEVILLE  CLOUDY    41  40  96 SE3       29.60S FOG
LITCHFIELD     LGT RAIN  40  37  92 N16       29.61R WCI  31
$$


CITY           SKY/WX    TMP DP  RH WIND       PRES   REMARKS
LINCOLN        CLOUDY    37  34  90 N21       29.68R WCI  26
MACOMB         LGT RAIN  32  31  97 N18G26    29.79R WCI  20
MATTOON        CLOUDY    39  38  96 NE7       29.59R FOG     WCI  34
MT CARMEL AP   LGT RAIN  43  39  87 SE5       29.59S
OLNEY-NOBLE AP LGT RAIN  41  39  93 CALM      29.59S
PARIS          CLOUDY    38  38 100 NE5       29.61S FOG     WCI  35
PEORIA         LGT SNOW  35  31  85 N16G23    29.73R FOG     WCI  25
PONTIAC        LGT SNOW  34  33  96 NE21      29.74R WCI  23
RANTOUL        LGT RAIN  35  34  95 NE18G24   29.65R WCI  24
ROBINSON       CLOUDY    40  39  97 SE7       29.60S FOG     WCI  35
SPRINGFIELD    CLOUDY    37  33  85 N18       29.67R WCI  27
TAYLORVILLE    CLOUDY    36  34  93 N16G22    29.63R FOG     WCI  26
$$

...REGIONAL REPORTS...


CITY           SKY/WX    TMP DP  RH WIND       PRES   REMARKS
CHICAGO O`HARE LGT SNOW  28  23  81 NE20G29   29.83R WCI  15
KANKAKEE       MIX PCPN  32  32  98 NE16G23   29.74S WCI  21
MOLINE         CLOUDY    30  24  78 NE14G23   29.84R WCI  19
MOUNT VERNON   CLOUDY    43  39  87 CALM      29.57S
PITTSFIELD     LGT RAIN  37  34  90 N15G23    29.70R WCI  28
QUINCY         LGT SNOW  34  32  92 N20G31    29.73R FOG     WCI  23
ROCKFORD       CLOUDY    28  16  60 NE22      29.89R WCI  14
$$


CITY           SKY/WX    TMP DP  RH WIND       PRES   REMARKS
BURLINGTON     CLOUDY    31  29  92 N18       29.80R FOG     WCI  19
CEDAR RAPIDS   CLOUDY    28  23  81 NE15      29.89R WCI  16
DES MOINES     CLOUDY    35  28  75 N14       29.94R WCI  26
KIRKSVILLE     CLOUDY    33  31  92 N20       29.82R WCI  21
OTTUMWA        CLOUDY    30  27  88 N16G25    29.88R WCI  19
ST LOUIS       LGT RAIN  46  43  89 N13       29.61R FOG
$$


CITY           SKY/WX    TMP DP  RH WIND       PRES   REMARKS
TERRE HAUTE    CLOUDY    39  37  92 E5        29.60F FOG
EVANSVILLE     LGT RAIN  42  39  89 S5        29.60F FOG
INDIANAPOLIS   LGT RAIN  37  34  89 E8        29.61F WCI  31
LAFAYETTE      LGT SNOW  33  31  92 NE16      29.66S VSB 1   WCI  23
MADISON        PTSUNNY   25  15  66 NE18      29.94S WCI  11
MILWAUKEE      PTSUNNY   26  14  60 NE21G26   29.92R WCI  12
$$




USA.gov is the U.S. government's official web portal to all federal, state and local government web resources and services.